TimePST,TemperatureF,Dew PointF,Humidity,Sea Level PressureIn,VisibilityMPH,Wind Direction,Wind SpeedMPH,Gust SpeedMPH,PrecipitationIn,Events,Conditions,WindDirDegrees,DateUTC
12:15 AM,32.0,32.0,100,30.28,10.0,Calm,Calm,-,N/A,,Partly Cloudy,0,2013-12-16 08:15:00
12:35 AM,33.8,33.8,100,30.27,10.0,Calm,Calm,-,N/A,,Partly Cloudy,0,2013-12-16 08:35:00
12:55 AM,32.0,32.0,100,30.27,10.0,Calm,Calm,-,N/A,,Partly Cloudy,0,2013-12-16 08:55:00
1:15 AM,32.0,32.0,100,30.27,10.0,Calm,Calm,-,N/A,,Partly Cloudy,0,2013-12-16 09:15:00
1:35 AM,32.0,32.0,100,30.26,10.0,Calm,Calm,-,N/A,,Partly Cloudy,0,2013-12-16 09:35:00
1:55 AM,32.0,32.0,100,30.26,10.0,Calm,Calm,-,N/A,,Scattered Clouds,0,2013-12-16 09:55:00
2:15 AM,32.0,32.0,100,30.26,10.0,Calm,Calm,-,N/A,,Partly Cloudy,0,2013-12-16 10:15:00
2:35 AM,32.0,32.0,100,30.26,10.0,Calm,Calm,-,N/A,,Clear,0,2013-12-16 10:35:00
2:55 AM,32.0,32.0,100,30.25,10.0,Calm,Calm,-,N/A,,Clear,0,2013-12-16 10:55:00
3:15 AM,32.0,32.0,100,30.25,10.0,Calm,Calm,-,N/A,,Clear,0,2013-12-16 11:15:00
3:35 AM,32.0,32.0,100,30.24,10.0,Calm,Calm,-,N/A,,Clear,0,2013-12-16 11:35:00
3:55 AM,33.8,33.8,100,30.24,10.0,Calm,Calm,-,N/A,,Clear,0,2013-12-16 11:55:00
4:15 AM,32.0,32.0,100,30.23,10.0,Calm,Calm,-,N/A,,Clear,0,2013-12-16 12:15:00
4:35 AM,33.8,33.8,100,30.23,10.0,NNE,3.5,-,N/A,,Clear,20,2013-12-16 12:35:00
4:55 AM,35.6,35.6,100,30.23,10.0,Calm,Calm,-,N/A,,Partly Cloudy,0,2013-12-16 12:55:00
5:15 AM,37.4,37.4,100,30.22,10.0,Calm,Calm,-,N/A,,Clear,0,2013-12-16 13:15:00
5:35 AM,35.6,35.6,100,30.22,10.0,Calm,Calm,-,N/A,,Partly Cloudy,0,2013-12-16 13:35:00
5:55 AM,37.4,35.6,93,30.22,10.0,East,3.5,-,N/A,,Clear,80,2013-12-16 13:55:00
6:15 AM,41.0,35.6,81,30.22,10.0,East,5.8,-,N/A,,Clear,90,2013-12-16 14:15:00
6:35 AM,41.0,35.6,81,30.23,10.0,East,5.8,-,N/A,,Partly Cloudy,90,2013-12-16 14:35:00
6:55 AM,41.0,35.6,81,30.22,10.0,ESE,5.8,-,N/A,,Clear,110,2013-12-16 14:55:00
7:15 AM,41.0,35.6,81,30.23,10.0,ESE,6.9,-,N/A,,Clear,120,2013-12-16 15:15:00
7:35 AM,41.0,35.6,81,30.23,10.0,East,4.6,-,N/A,,Clear,100,2013-12-16 15:35:00
7:55 AM,39.2,35.6,87,30.24,10.0,East,4.6,-,N/A,,Clear,100,2013-12-16 15:55:00
8:15 AM,42.8,37.4,81,30.24,10.0,ESE,4.6,-,N/A,,Clear,120,2013-12-16 16:15:00
8:35 AM,44.6,37.4,76,30.24,10.0,ESE,3.5,-,N/A,,Clear,120,2013-12-16 16:35:00
8:55 AM,48.2,37.4,66,30.24,10.0,SE,3.5,-,N/A,,Clear,130,2013-12-16 16:55:00
9:15 AM,48.2,37.4,66,30.25,10.0,SE,5.8,-,N/A,,Clear,130,2013-12-16 17:15:00
9:35 AM,50.0,39.2,66,30.25,10.0,SE,6.9,-,N/A,,Clear,140,2013-12-16 17:35:00
9:55 AM,50.0,37.4,62,30.25,10.0,SE,8.1,-,N/A,,Clear,130,2013-12-16 17:55:00
10:15 AM,53.6,39.2,58,30.25,10.0,SSE,10.4,-,N/A,,Clear,150,2013-12-16 18:15:00
10:35 AM,53.6,37.4,54,30.24,10.0,SSE,11.5,-,N/A,,Clear,150,2013-12-16 18:35:00
10:55 AM,53.6,39.2,58,30.24,10.0,SSE,8.1,-,N/A,,Clear,150,2013-12-16 18:55:00
11:15 AM,55.4,37.4,51,30.23,10.0,SSE,10.4,-,N/A,,Clear,150,2013-12-16 19:15:00
11:35 AM,57.2,37.4,48,30.22,10.0,SE,9.2,-,N/A,,Clear,140,2013-12-16 19:35:00
11:55 AM,57.2,37.4,48,30.20,10.0,South,12.7,16.1,N/A,,Clear,170,2013-12-16 19:55:00
12:15 PM,59.0,37.4,45,30.19,10.0,SSE,13.8,-,N/A,,Clear,160,2013-12-16 20:15:00
12:35 PM,59.0,37.4,45,30.19,10.0,SSE,10.4,-,N/A,,Clear,150,2013-12-16 20:35:00
12:55 PM,60.8,37.4,42,30.18,10.0,SSE,9.2,16.1,N/A,,Clear,160,2013-12-16 20:55:00
1:15 PM,60.8,37.4,42,30.17,10.0,SSE,10.4,-,N/A,,Clear,160,2013-12-16 21:15:00
1:35 PM,62.6,35.6,37,30.17,10.0,South,9.2,-,N/A,,Clear,170,2013-12-16 21:35:00
1:55 PM,62.6,37.4,39,30.17,10.0,SSE,8.1,-,N/A,,Clear,160,2013-12-16 21:55:00
2:15 PM,62.6,37.4,39,30.16,10.0,South,9.2,-,N/A,,Clear,170,2013-12-16 22:15:00
2:35 PM,60.8,37.4,42,30.16,10.0,SSE,8.1,-,N/A,,Clear,160,2013-12-16 22:35:00
2:55 PM,62.6,37.4,39,30.16,10.0,South,8.1,-,N/A,,Clear,170,2013-12-16 22:55:00
3:15 PM,62.6,37.4,39,30.16,10.0,SE,5.8,-,N/A,,Clear,140,2013-12-16 23:15:00
3:35 PM,60.8,37.4,42,30.15,10.0,SSE,6.9,-,N/A,,Clear,150,2013-12-16 23:35:00
3:55 PM,59.0,37.4,45,30.16,10.0,SSE,5.8,-,N/A,,Clear,160,2013-12-16 23:55:00
4:15 PM,57.2,35.6,44,30.16,10.0,SE,3.5,-,N/A,,Clear,130,2013-12-17 00:15:00
4:35 PM,55.4,35.6,47,30.16,10.0,ESE,3.5,-,N/A,,Clear,120,2013-12-17 00:35:00
4:55 PM,53.6,37.4,54,30.16,10.0,ESE,4.6,-,N/A,,Clear,110,2013-12-17 00:55:00
5:15 PM,51.8,35.6,54,30.16,10.0,East,3.5,-,N/A,,Clear,80,2013-12-17 01:15:00
5:35 PM,48.2,35.6,62,30.16,10.0,Calm,Calm,-,N/A,,Clear,0,2013-12-17 01:35:00
5:55 PM,46.4,35.6,66,30.16,10.0,Calm,Calm,-,N/A,,Clear,0,2013-12-17 01:55:00
6:15 PM,44.6,35.6,71,30.17,10.0,Calm,Calm,-,N/A,,Clear,0,2013-12-17 02:15:00
6:35 PM,44.6,35.6,71,30.16,10.0,Calm,Calm,-,N/A,,Clear,0,2013-12-17 02:35:00
6:55 PM,44.6,35.6,71,30.16,10.0,NNE,3.5,-,N/A,,Clear,30,2013-12-17 02:55:00
7:15 PM,41.0,33.8,76,30.16,10.0,Calm,Calm,-,N/A,,Clear,0,2013-12-17 03:15:00
7:35 PM,41.0,35.6,81,30.16,10.0,Calm,Calm,-,N/A,,Clear,0,2013-12-17 03:35:00
7:55 PM,41.0,35.6,81,30.16,10.0,ENE,3.5,-,N/A,,Clear,70,2013-12-17 03:55:00
8:15 PM,44.6,35.6,71,30.16,10.0,Calm,Calm,-,N/A,,Clear,0,2013-12-17 04:15:00
8:35 PM,41.0,35.6,81,30.17,10.0,NE,3.5,-,N/A,,Partly Cloudy,40,2013-12-17 04:35:00
8:55 PM,42.8,35.6,76,30.17,10.0,East,4.6,-,N/A,,Partly Cloudy,100,2013-12-17 04:55:00
9:55 PM,44.6,37.4,76,30.18,10.0,ESE,4.6,-,N/A,,Scattered Clouds,120,2013-12-17 05:55:00
10:15 PM,44.6,37.4,76,30.19,10.0,East,4.6,-,N/A,,Mostly Cloudy,100,2013-12-17 06:15:00
10:35 PM,46.4,35.6,66,30.19,10.0,East,4.6,-,N/A,,Mostly Cloudy,90,2013-12-17 06:35:00
10:55 PM,46.4,35.6,66,30.19,10.0,ESE,3.5,-,N/A,,Scattered Clouds,110,2013-12-17 06:55:00
11:15 PM,46.4,35.6,66,30.19,10.0,SSE,8.1,-,N/A,,Scattered Clouds,150,2013-12-17 07:15:00
11:35 PM,44.6,37.4,76,30.19,10.0,Calm,Calm,-,N/A,,Scattered Clouds,0,2013-12-17 07:35:00
11:55 PM,42.8,35.6,76,30.19,8.0,North,3.5,-,N/A,,Scattered Clouds,350,2013-12-17 07:55:00